Hourly Weather Dziebedow

Today, 16 May, Sunday

Time Temperature Precipitation Wind Pressure Humidity
00:00 +10°C° 0.1 mm 2 mps 740 mmHg 93%
01:00 +10°C° 0 mm 2 mps 740 mmHg 92%
02:00 +10°C° 0.4 mm 2 mps 740 mmHg 93%
03:00 +10°C° 0.4 mm 2 mps 739 mmHg 94%
04:00 +10°C° 0.4 mm 2 mps 739 mmHg 94%
05:00 +11°C° 0.4 mm 3 mps 739 mmHg 93%
06:00 +12°C° 0.4 mm 3 mps 739 mmHg 91%
07:00 +12°C° 0.4 mm 4 mps 739 mmHg 89%
08:00 +13°C° 0.2 mm 4 mps 739 mmHg 84%
09:00 +14°C° 0.2 mm 4 mps 739 mmHg 79%
10:00 +16°C° 0.2 mm 3 mps 739 mmHg 74%
11:00 +15°C° 0.4 mm 4 mps 740 mmHg 73%
12:00 +15°C° 0.4 mm 4 mps 740 mmHg 72%
13:00 +15°C° 0.4 mm 5 mps 740 mmHg 71%
14:00 +17°C° 0.3 mm 4 mps 740 mmHg 70%
15:00 +17°C° 0.3 mm 4 mps 740 mmHg 68%
16:00 +17°C° 0.3 mm 3 mps 740 mmHg 67%
17:00 +16°C° 0 mm 3 mps 739 mmHg 72%
18:00 +15°C° 0 mm 2 mps 739 mmHg 76%
19:00 +14°C° 0 mm 1 mps 739 mmHg 80%
20:00 +13°C° 0 mm 1 mps 740 mmHg 82%
21:00 +12°C° 0 mm 2 mps 740 mmHg 84%
22:00 +10°C° 0 mm 2 mps 740 mmHg 85%
23:00 +10°C° 0 mm 2 mps 740 mmHg 86%

Tomorrow, 17 May, Monday

Time Temperature Precipitation Wind Pressure Humidity
00:00 +9°C° 0 mm 2 mps 740 mmHg 86%
01:00 +9°C° 0 mm 3 mps 740 mmHg 86%
02:00 +8°C° 0 mm 3 mps 740 mmHg 87%
03:00 +8°C° 0 mm 3 mps 740 mmHg 88%
04:00 +8°C° 0 mm 3 mps 740 mmHg 88%
05:00 +10°C° 0 mm 2 mps 740 mmHg 84%
06:00 +12°C° 0 mm 2 mps 740 mmHg 80%
07:00 +14°C° 0 mm 2 mps 740 mmHg 76%
08:00 +13°C° 0.2 mm 3 mps 740 mmHg 78%
09:00 +13°C° 0.2 mm 3 mps 740 mmHg 80%
10:00 +13°C° 0.2 mm 3 mps 740 mmHg 82%
11:00 +13°C° 0.9 mm 3 mps 740 mmHg 83%
12:00 +12°C° 0.9 mm 3 mps 740 mmHg 85%
13:00 +12°C° 0.9 mm 3 mps 740 mmHg 87%
14:00 +12°C° 1.1 mm 3 mps 740 mmHg 89%
15:00 +11°C° 1.1 mm 3 mps 740 mmHg 92%
16:00 +11°C° 1.1 mm 3 mps 740 mmHg 95%
17:00 +10°C° 1.9 mm 2 mps 740 mmHg 95%
18:00 +10°C° 1.9 mm 2 mps 740 mmHg 96%
19:00 +11°C° 1.9 mm 1 mps 740 mmHg 97%
20:00 +11°C° 0.9 mm 1 mps 740 mmHg 97%
21:00 +11°C° 0.9 mm 1 mps 740 mmHg 96%
22:00 +11°C° 0.9 mm 1 mps 740 mmHg 96%
23:00 +10°C° 0.1 mm 2 mps 740 mmHg 96%

Day after tomorrow, 18 May, Tuesday

Time Temperature Precipitation Wind Pressure Humidity
00:00 +9°C° 0.1 mm 3 mps 740 mmHg 96%
01:00 +8°C° 0.1 mm 4 mps 740 mmHg 96%
02:00 +8°C° 0.1 mm 4 mps 740 mmHg 96%
03:00 +8°C° 0.1 mm 5 mps 740 mmHg 96%
04:00 +8°C° 0.1 mm 6 mps 741 mmHg 96%
05:00 +8°C° 0 mm 6 mps 741 mmHg 94%
06:00 +9°C° 0 mm 6 mps 741 mmHg 92%
07:00 +9°C° 0 mm 7 mps 741 mmHg 90%
08:00 +9°C° 0 mm 7 mps 742 mmHg 86%
09:00 +10°C° 0 mm 7 mps 742 mmHg 83%
10:00 +11°C° 0 mm 7 mps 742 mmHg 79%
11:00 +12°C° 0.1 mm 7 mps 742 mmHg 76%
12:00 +13°C° 0.1 mm 6 mps 742 mmHg 73%
13:00 +14°C° 0.1 mm 6 mps 742 mmHg 70%
14:00 +14°C° 0.2 mm 6 mps 742 mmHg 70%
15:00 +14°C° 0.2 mm 6 mps 742 mmHg 71%
16:00 +14°C° 0.2 mm 6 mps 742 mmHg 72%
17:00 +13°C° 0.2 mm 5 mps 743 mmHg 76%
18:00 +12°C° 0.2 mm 4 mps 743 mmHg 81%
19:00 +11°C° 0.2 mm 3 mps 743 mmHg 86%
20:00 +10°C° 0 mm 3 mps 743 mmHg 88%
21:00 +9°C° 0 mm 3 mps 744 mmHg 91%
22:00 +8°C° 0 mm 3 mps 744 mmHg 94%
23:00 +8°C° 0 mm 3 mps 744 mmHg 94%

19 May, Wednesday

Time Temperature Precipitation Wind Pressure Humidity
00:00 +7°C° 0 mm 4 mps 744 mmHg 95%
01:00 +6°C° 0 mm 4 mps 745 mmHg 96%
02:00 +6°C° 0 mm 4 mps 745 mmHg 96%
03:00 +7°C° 0 mm 3 mps 745 mmHg 97%
04:00 +7°C° 0 mm 3 mps 745 mmHg 97%
05:00 +7°C° 0 mm 4 mps 745 mmHg 94%
06:00 +8°C° 0 mm 5 mps 746 mmHg 91%
07:00 +9°C° 0 mm 5 mps 746 mmHg 88%
08:00 +9°C° 0 mm 5 mps 746 mmHg 84%
09:00 +10°C° 0 mm 5 mps 746 mmHg 79%
10:00 +12°C° 0 mm 5 mps 746 mmHg 74%
11:00 +12°C° 0.1 mm 5 mps 746 mmHg 74%
12:00 +12°C° 0.1 mm 5 mps 746 mmHg 74%
13:00 +13°C° 0.1 mm 5 mps 746 mmHg 74%
14:00 +13°C° 0.3 mm 5 mps 746 mmHg 75%
15:00 +12°C° 0.3 mm 5 mps 746 mmHg 77%
16:00 +12°C° 0.3 mm 5 mps 745 mmHg 78%
17:00 +12°C° 0.3 mm 4 mps 746 mmHg 82%
18:00 +11°C° 0.3 mm 4 mps 746 mmHg 86%
19:00 +10°C° 0.3 mm 4 mps 746 mmHg 90%
20:00 +9°C° 0 mm 3 mps 746 mmHg 91%
21:00 +9°C° 0 mm 3 mps 746 mmHg 93%
22:00 +8°C° 0 mm 3 mps 746 mmHg 94%
23:00 +8°C° 0 mm 3 mps 746 mmHg 94%

20 May, Thursday

Time Temperature Precipitation Wind Pressure Humidity
00:00 +7°C° 0 mm 3 mps 747 mmHg 94%
01:00 +7°C° 0 mm 3 mps 747 mmHg 94%
02:00 +7°C° 0 mm 3 mps 747 mmHg 94%
03:00 +5°C° 0 mm 3 mps 747 mmHg 94%
04:00 +6°C° 0 mm 2 mps 747 mmHg 94%
05:00 +7°C° 0 mm 3 mps 747 mmHg 91%
06:00 +8°C° 0 mm 3 mps 747 mmHg 87%
07:00 +9°C° 0 mm 3 mps 748 mmHg 84%
08:00 +11°C° 0.1 mm 4 mps 748 mmHg 79%
09:00 +12°C° 0.1 mm 4 mps 748 mmHg 75%
10:00 +13°C° 0.1 mm 5 mps 748 mmHg 70%
11:00 +14°C° 0.4 mm 5 mps 747 mmHg 67%
12:00 +14°C° 0.4 mm 5 mps 747 mmHg 65%
13:00 +14°C° 0.4 mm 5 mps 747 mmHg 63%
14:00 +14°C° 0.1 mm 5 mps 747 mmHg 63%
15:00 +14°C° 0.1 mm 5 mps 748 mmHg 63%
16:00 +14°C° 0.1 mm 5 mps 748 mmHg 63%
17:00 +13°C° 0 mm 4 mps 748 mmHg 67%
18:00 +12°C° 0 mm 3 mps 748 mmHg 72%
19:00 +11°C° 0 mm 3 mps 748 mmHg 76%
20:00 +10°C° 0 mm 3 mps 748 mmHg 78%
21:00 +9°C° 0 mm 3 mps 748 mmHg 79%
22:00 +8°C° 0 mm 3 mps 748 mmHg 81%
23:00 +7°C° 0 mm 3 mps 748 mmHg 83%

21 May, Friday

Time Temperature Precipitation Wind Pressure Humidity
00:00 +7°C° 0 mm 3 mps 748 mmHg 85%
01:00 +7°C° 0 mm 3 mps 748 mmHg 87%
02:00 +5°C° 0 mm 3 mps 748 mmHg 90%
03:00 +5°C° 0 mm 3 mps 748 mmHg 92%
04:00 +5°C° 0 mm 3 mps 748 mmHg 95%
05:00 +7°C° 0 mm 3 mps 748 mmHg 90%
06:00 +8°C° 0 mm 4 mps 748 mmHg 85%
07:00 +10°C° 0 mm 4 mps 748 mmHg 80%
08:00 +12°C° 0 mm 4 mps 748 mmHg 74%
09:00 +13°C° 0 mm 4 mps 748 mmHg 68%
10:00 +14°C° 0 mm 4 mps 747 mmHg 62%
11:00 +15°C° 0.1 mm 4 mps 747 mmHg 59%
12:00 +17°C° 0.1 mm 4 mps 747 mmHg 57%
13:00 +17°C° 0.1 mm 4 mps 746 mmHg 54%
14:00 +17°C° 0.2 mm 4 mps 746 mmHg 55%
15:00 +17°C° 0.2 mm 4 mps 745 mmHg 57%
16:00 +17°C° 0.2 mm 4 mps 745 mmHg 58%
17:00 +15°C° 0 mm 4 mps 744 mmHg 63%
18:00 +14°C° 0 mm 3 mps 744 mmHg 68%
19:00 +13°C° 0 mm 3 mps 744 mmHg 74%
20:00 +13°C° 0 mm 3 mps 744 mmHg 74%
21:00 +12°C° 0 mm 4 mps 743 mmHg 74%
22:00 +12°C° 0 mm 5 mps 743 mmHg 74%
23:00 +12°C° 0 mm 5 mps 743 mmHg 74%
Show more

We Need Your Consent

Meteoprog and our Service Providers may store and access personal data such as cookies, device identifiers or other similar technologies on your device and process such data to personalise content and ads, as well as provide social media features and to analyse the traffic.

  • Store and/or access information on your device

    Cookies, device identifiers or other information can be stored or accessed on your device for the purposes indicated above.

  • Personalised ads and content, ad and content measurement, audience insights, and products development

    Ads and content can be personalised based on a profile. More data can be added to better personalise ads and content. Ad and content performance can be measured. Insights about the audience who saw the ads and content can be derived. Such data can be used to develop or improve user’s experience, systems and software.

By clicking ‘I Agree’ you will allow the use of indicated cookies, device identifiers, web beacons or other similar technologies. Your settings can be changed in the browser on your device.

For certain purposes, legitimate interests may be relied on, rather than consent. You can read more about this in our Privacy and Cookie Policy.